Main page
METAR-TAF:

METAR-TAF

Airports :

RAF Spadeadam

Spadeadam, England

latitude: 55-03N, longitude: 002-33W, elevation: 325 m

Current weather observation

The report was made 49 minutes ago, at 18:50 UTC
Wind 24 kt from the West with gusts up to 37 kt
Temperature 7°C
Humidity 100%
Pressure 1011 hPa
Visibility: 1900 m
rain

METAR: EGOM 291850Z AUTO 26024G37KT 1900 RA OVC003/// 07/07 Q1011

Time: 19:39 (19:39 UTC)


TAF: missing

Weather observations and forecasts of more than 4000 airports (METAR and TAF reports).

The available stations are represented by yellow and red dots on the map.

Hover mouse over dot to see the name of the station.

Then click to see weather observations and forecasts.

To change the map : click on the green buttons with a black cross to zoom in, on the green button with a dash to zoom out, or on the green arrows for adjacent maps.


METAR-TAF: